period_start,C,m1,H,J0,J1,J2,J3,J4,J5,JA,JB,JC,JD,JJ,JK,JN,#
2015-11-18 00:02:16,0.01,0.49,0.00,18.34,23.22,26.89,15.07,46.79,1037.77,2052.97,3366.04,3127.99,3440.99,599.86,618.02,25.96,0000 0000 0000 0000 000000
2015-11-18 00:07:17,0.01,0.49,0.00,18.34,23.22,26.89,15.01,46.61,1037.70,2052.97,3365.87,3127.83,3440.88,599.45,617.64,26.01,0000 0000 0000 0000 000000
2015-11-18 00:12:18,0.04,0.49,0.00,18.34,23.22,26.91,15.11,46.83,1037.65,2052.98,3365.08,3127.06,3440.11,600.15,618.26,26.06,0000 0000 0000 0000 000000
2015-11-18 00:17:20,0.00,0.49,0.00,18.34,23.22,26.85,15.10,46.67,1037.63,2052.98,3364.85,3127.00,3439.99,600.04,618.10,26.11,0000 0000 0000 0000 000000
2015-11-18 00:22:21,0.02,0.50,0.00,18.34,23.22,26.91,15.07,46.72,1037.62,2052.97,3364.15,3126.77,3439.80,599.90,617.91,26.16,0000 0000 0000 0000 000000
2015-11-18 00:27:23,0.02,0.50,0.00,18.34,23.22,26.89,15.10,46.74,1037.62,2052.98,3363.98,3126.06,3439.05,599.75,617.78,26.21,0000 0000 0000 0000 000000
2015-11-18 00:32:24,0.01,0.50,0.00,18.34,23.22,26.87,15.08,46.78,1037.62,2052.96,3363.36,3125.99,3438.98,599.90,617.96,26.26,0000 0000 0000 0000 000000
2015-11-18 00:37:25,0.01,0.50,0.00,18.34,23.22,26.89,15.04,46.90,1037.62,2052.97,3363.00,3125.87,3438.70,599.77,617.78,26.31,0000 0000 0000 0000 000000
2015-11-18 00:42:27,0.04,0.50,0.00,18.35,23.22,26.89,15.07,47.09,1037.61,2052.98,3362.49,3125.17,3438.07,599.51,617.59,26.36,0000 0000 0000 0000 000000
2015-11-18 00:47:28,0.00,0.50,0.00,18.35,23.22,26.89,15.11,47.08,1037.61,2052.98,3362.01,3125.00,3437.99,599.95,617.77,26.41,0000 0000 0000 0000 000000
2015-11-18 00:52:29,0.02,0.50,0.00,18.36,23.22,26.91,15.10,47.17,1037.61,2052.97,3361.43,3124.91,3437.54,599.88,617.90,26.46,0000 0000 0000 0000 000000
2015-11-18 00:57:30,0.03,0.50,0.00,18.36,23.22,26.88,15.05,47.03,1037.61,2052.97,3361.00,3124.17,3437.03,599.90,617.92,26.51,0000 0000 0000 0000 000000
2015-11-18 01:02:32,0.01,0.50,0.00,18.35,23.22,26.87,15.24,46.94,1037.61,2052.98,3360.65,3124.00,3436.98,600.33,618.31,26.56,0000 0000 0000 0000 000000
2015-11-18 01:07:33,0.02,0.51,0.00,18.36,23.22,26.88,15.18,47.02,1037.61,2052.97,3360.04,3123.99,3436.55,600.34,618.38,26.61,0000 0000 0000 0000 000000
2015-11-18 01:12:34,0.02,0.51,0.00,18.40,23.23,26.83,15.13,47.22,1037.61,2052.96,3359.88,3123.57,3436.03,600.12,618.01,26.66,0000 0000 0000 0000 000000
2015-11-18 01:17:35,0.02,0.51,0.00,18.63,23.24,26.54,15.04,46.95,1037.61,2052.96,3359.09,3123.04,3435.98,600.25,617.71,26.71,0000 0000 0000 0000 000000
2015-11-18 01:22:36,0.01,0.51,0.00,18.71,23.24,26.43,15.06,47.02,1037.61,2052.97,3358.95,3123.00,3435.44,600.06,617.35,26.76,0000 0000 0000 0000 000000
2015-11-18 01:27:38,0.02,0.51,0.00,18.72,23.24,26.37,15.11,47.07,1037.60,2052.97,3358.28,3122.83,3435.03,600.18,617.47,26.81,0000 0000 0000 0000 000000
2015-11-18 01:32:39,0.01,0.51,0.00,18.69,23.24,26.34,15.00,47.08,1037.58,2052.97,3357.99,3122.12,3434.99,600.01,617.34,26.86,0000 0000 0000 0000 000000
2015-11-18 01:37:41,0.01,0.51,0.00,18.69,23.24,26.30,15.06,46.89,1037.52,2052.98,3357.54,3122.00,3434.80,600.23,617.54,26.91,0000 0000 0000 0000 000000
2015-11-18 01:42:42,0.01,0.51,0.00,18.63,23.23,26.38,15.06,47.03,1037.55,2052.98,3357.02,3121.97,3434.18,599.89,617.34,26.96,0000 0000 0000 0000 000000
2015-11-18 01:47:44,0.01,0.51,0.00,18.57,23.22,26.41,15.03,46.99,1037.50,2052.98,3356.84,3121.81,3434.00,599.91,617.37,27.01,0000 0000 0000 0000 000000
2015-11-18 01:52:45,0.03,0.51,0.00,18.52,23.21,26.45,15.07,47.10,1037.34,2052.98,3356.09,3121.14,3433.92,599.97,617.55,27.06,0000 0000 0000 0000 000000
2015-11-18 01:57:46,0.01,0.52,0.00,18.48,23.19,26.43,15.02,47.15,1037.34,2052.99,3355.92,3121.00,3433.17,599.95,617.55,27.11,0000 0000 0000 0000 000000
2015-11-18 02:02:48,0.01,0.52,0.00,18.44,23.19,26.45,15.07,47.21,1037.29,2052.99,3355.17,3120.94,3433.00,599.87,617.38,27.16,0000 0000 0000 0000 000000
2015-11-18 02:07:49,0.01,0.52,0.00,18.40,23.17,26.50,15.12,47.27,1037.25,2052.99,3355.00,3120.45,3432.99,600.18,617.93,27.21,0000 0000 0000 0000 000000
2015-11-18 02:12:50,0.03,0.52,0.00,18.38,23.17,26.54,15.18,47.27,1037.17,2052.99,3354.52,3120.06,3432.60,600.40,618.18,27.26,0000 0000 0000 0000 000000
2015-11-18 02:17:51,0.00,0.52,0.00,18.37,23.16,26.60,15.01,47.06,1037.17,2052.99,3354.02,3120.00,3432.06,599.78,617.60,27.31,0000 0000 0000 0000 000000
2015-11-18 02:22:53,0.00,0.52,0.00,18.35,23.15,26.67,15.03,46.77,1037.14,2052.99,3353.97,3119.99,3432.00,599.87,617.61,27.36,0000 0000 0000 0000 000000
2015-11-18 02:27:54,0.02,0.52,0.00,18.34,23.14,26.61,15.11,47.27,1037.14,2052.99,3353.35,3119.82,3431.98,599.87,617.65,27.41,0000 0000 0000 0000 000000
2015-11-18 02:32:56,0.03,0.52,0.00,18.34,23.14,26.62,15.15,47.30,1037.14,2052.99,3353.01,3119.15,3431.56,600.13,617.95,27.46,0000 0000 0000 0000 000000
2015-11-18 02:37:57,0.00,0.52,0.00,18.34,23.14,26.66,15.15,47.26,1037.13,2052.99,3352.85,3119.02,3431.09,600.11,617.98,27.51,0000 0000 0000 0000 000000
2015-11-18 02:42:58,0.01,0.52,0.00,18.34,23.14,26.76,15.19,47.39,1037.14,2052.99,3352.19,3119.00,3431.00,600.35,618.28,27.56,0000 0000 0000 0000 000000
2015-11-18 02:48:00,0.00,0.52,0.00,18.34,23.14,26.71,15.17,47.23,1037.14,2053.00,3351.99,3118.84,3430.91,599.95,617.72,27.61,0000 0000 0000 0000 000000
2015-11-18 02:53:01,0.03,0.52,0.00,18.34,23.13,26.69,15.12,47.19,1037.15,2053.00,3351.64,3118.20,3430.23,600.19,618.07,27.66,0000 0000 0000 0000 000000
2015-11-18 02:58:02,0.01,0.53,0.00,18.34,23.13,26.72,15.12,47.23,1037.16,2053.00,3351.05,3118.02,3430.01,600.23,617.93,27.71,0000 0000 0000 0000 000000
2015-11-18 03:03:03,0.00,0.53,0.00,18.34,23.13,26.78,15.10,47.20,1037.32,2053.00,3350.90,3117.99,3429.98,599.80,617.77,27.76,0000 0000 0000 0000 000000
2015-11-18 03:08:04,0.02,0.53,0.00,18.34,23.13,26.77,15.14,47.27,1037.58,2053.00,3350.11,3117.76,3429.58,599.91,617.95,27.81,0000 0000 0000 0000 000000
2015-11-18 03:13:05,0.02,0.53,0.00,18.37,23.13,26.77,15.05,47.01,1037.61,2053.00,3349.95,3117.06,3429.04,599.88,617.89,27.86,0000 0000 0000 0000 000000
2015-11-18 03:18:06,0.01,0.53,0.00,18.35,23.13,26.78,15.06,47.08,1037.61,2053.00,3349.19,3116.98,3428.95,599.82,617.87,27.91,0000 0000 0000 0000 000000
2015-11-18 03:23:07,0.01,0.53,0.00,18.35,23.14,26.73,15.16,47.28,1037.61,2053.00,3348.99,3116.84,3428.38,600.15,618.02,27.96,0000 0000 0000 0000 000000
2015-11-18 03:28:09,0.03,0.53,0.00,18.37,23.14,26.81,15.05,47.16,1037.61,2053.00,3348.46,3116.14,3428.01,599.98,618.12,28.01,0000 0000 0000 0000 000000
2015-11-18 03:33:10,0.00,0.53,0.00,18.37,23.14,26.78,15.07,47.27,1037.54,2053.00,3348.03,3116.01,3427.99,600.07,618.05,28.06,0000 0000 0000 0000 000000
2015-11-18 03:38:12,0.00,0.53,0.00,18.37,23.14,26.81,15.08,47.23,1037.32,2053.00,3347.97,3116.00,3427.72,600.01,617.84,28.11,0000 0000 0000 0000 000000
2015-11-18 03:43:13,0.02,0.53,0.00,18.37,23.14,26.82,15.22,47.27,1037.23,2053.00,3347.33,3115.85,3427.10,600.29,617.97,28.16,0000 0000 0000 0000 000000
2015-11-18 03:48:14,0.02,0.54,0.00,18.36,23.14,26.82,15.06,47.22,1037.16,2053.00,3346.98,3115.11,3426.97,599.46,617.21,28.21,0000 0000 0000 0000 000000
2015-11-18 03:53:16,0.02,0.54,0.00,18.37,23.14,26.77,15.17,47.43,1037.13,2053.00,3346.41,3114.99,3426.52,600.33,618.09,28.26,0000 0000 0000 0000 000000
2015-11-18 03:58:17,0.00,0.54,0.00,18.37,23.15,26.81,15.04,47.24,1037.14,2053.00,3346.01,3114.88,3426.02,599.65,617.28,28.31,0000 0000 0000 0000 000000
2015-11-18 04:03:18,0.02,0.54,0.00,18.34,23.15,26.85,15.20,47.28,1037.15,2053.00,3345.85,3114.26,3425.99,600.28,617.82,28.36,0000 0000 0000 0000 000000
2015-11-18 04:08:20,0.02,0.54,0.00,18.35,23.15,26.84,15.12,47.28,1037.22,2053.00,3345.08,3114.01,3425.29,599.89,617.74,28.41,0000 0000 0000 0000 000000
2015-11-18 04:13:21,0.00,0.54,0.00,18.34,23.15,26.80,15.07,47.23,1037.33,2053.00,3344.98,3113.98,3425.01,599.78,617.74,28.46,0000 0000 0000 0000 000000
2015-11-18 04:18:22,0.01,0.54,0.00,18.32,23.15,26.83,15.08,47.17,1037.42,2053.00,3344.56,3113.73,3424.99,599.93,617.88,28.51,0000 0000 0000 0000 000000
2015-11-18 04:23:24,0.02,0.54,0.00,18.32,23.14,26.84,15.10,47.29,1037.45,2053.00,3344.03,3113.12,3424.75,600.10,618.23,28.56,0000 0000 0000 0000 000000
2015-11-18 04:28:25,0.01,0.54,0.00,18.30,23.14,26.89,15.10,47.32,1037.36,2052.99,3343.91,3113.00,3424.06,599.68,617.63,28.61,0000 0000 0000 0000 000000
2015-11-18 04:33:26,0.01,0.54,0.00,18.29,23.14,26.87,15.19,47.47,1037.20,2052.99,3343.20,3112.97,3423.99,600.26,618.17,28.66,0000 0000 0000 0000 000000
2015-11-18 04:38:28,0.01,0.54,0.00,18.29,23.14,26.86,15.23,47.23,1037.22,2052.99,3343.00,3112.53,3423.89,600.22,618.14,28.71,0000 0000 0000 0000 000000
2015-11-18 04:43:29,0.02,0.55,0.00,18.27,23.14,26.87,15.09,47.10,1037.24,2052.98,3342.85,3112.03,3423.14,600.01,618.02,28.76,0000 0000 0000 0000 000000
2015-11-18 04:48:30,0.01,0.55,0.00,18.25,23.12,26.84,15.13,47.15,1037.43,2052.99,3342.13,3112.00,3422.99,600.04,618.19,28.81,0000 0000 0000 0000 000000
2015-11-18 04:53:32,0.00,0.55,0.00,18.24,23.12,26.82,15.16,47.39,1037.45,2052.99,3341.99,3111.93,3422.81,599.88,618.01,28.86,0000 0000 0000 0000 000000
2015-11-18 04:58:33,0.02,0.55,0.00,18.23,23.12,26.82,15.17,47.38,1037.37,2052.99,3341.97,3111.62,3422.23,600.43,618.42,28.91,0000 0000 0000 0000 000000
2015-11-18 05:03:34,0.02,0.55,0.00,18.21,23.11,26.85,15.10,47.33,1037.38,2052.98,3341.46,3111.09,3422.02,599.69,617.88,28.97,0000 0000 0000 0000 000000
2015-11-18 05:08:36,0.00,0.55,0.00,18.20,23.10,26.83,15.18,47.37,1037.22,2052.99,3341.04,3111.00,3421.98,600.27,618.44,29.02,0000 0000 0000 0000 000000
2015-11-18 05:13:37,0.00,0.55,0.00,18.18,23.09,26.80,15.11,47.24,1037.55,2052.98,3341.00,3110.99,3421.81,599.96,618.37,29.07,0000 0000 0000 0000 000000
2015-11-18 05:18:38,0.01,0.55,0.00,18.16,23.09,26.84,15.17,47.37,1037.56,2052.98,3340.89,3110.91,3421.10,600.27,618.54,29.12,0000 0000 0000 0000 000000
2015-11-18 05:23:39,0.03,0.55,0.00,18.14,23.07,26.80,15.12,47.33,1037.48,2052.98,3340.29,3110.38,3421.00,599.97,618.41,29.17,0000 0000 0000 0000 000000
2015-11-18 05:28:41,0.00,0.55,0.00,18.11,23.07,26.78,15.05,47.11,1037.58,2052.99,3340.02,3110.01,3420.99,599.84,618.38,29.22,0000 0000 0000 0000 000000
2015-11-18 05:33:42,0.00,0.55,0.00,18.09,23.05,26.79,15.15,47.34,1037.55,2052.98,3339.99,3110.00,3420.79,599.75,618.13,29.27,0000 0000 0000 0000 000000
2015-11-18 05:38:43,0.01,0.55,0.00,18.07,23.04,26.76,15.06,47.36,1037.56,2052.99,3339.87,3109.99,3420.23,599.80,618.51,29.32,0000 0000 0000 0000 000000
2015-11-18 05:43:44,0.01,0.55,0.00,18.05,23.02,26.76,15.19,47.21,1037.54,2052.99,3339.24,3109.94,3420.01,599.95,618.65,29.37,0000 0000 0000 0000 000000
2015-11-18 05:48:46,0.02,0.55,0.00,18.03,23.01,26.73,15.23,47.33,1037.55,2052.99,3339.00,3109.38,3419.99,600.24,618.94,29.42,0000 0000 0000 0000 000000
2015-11-18 05:53:47,0.00,0.56,0.00,18.02,22.99,26.71,15.15,47.38,1037.59,2052.99,3338.95,3109.02,3419.84,600.15,618.92,29.47,0000 0000 0000 0000 000000
2015-11-18 05:58:48,0.01,0.56,0.00,18.01,22.98,26.70,15.19,47.30,1037.59,2052.99,3338.56,3109.00,3419.32,600.05,618.97,29.52,0000 0000 0000 0000 000000
2015-11-18 06:03:49,0.00,0.56,0.00,17.98,22.97,26.72,15.13,47.39,1037.55,2052.99,3338.06,3109.00,3419.05,600.04,618.77,29.57,0000 0000 0000 0000 000000
2015-11-18 06:08:50,0.00,0.56,0.00,17.97,22.95,26.68,15.01,47.30,1037.49,2052.99,3338.00,3108.97,3419.00,599.42,618.31,29.62,0000 0000 0000 0000 000000
2015-11-18 06:13:52,0.01,0.56,0.00,17.95,22.94,26.64,15.09,47.36,1037.46,2052.99,3337.97,3108.78,3418.99,599.96,618.87,29.67,0000 0000 0000 0000 000000
2015-11-18 06:18:53,0.00,0.56,0.00,17.93,22.92,26.64,15.19,47.46,1037.41,2053.00,3337.93,3108.65,3418.98,600.26,619.04,29.72,0000 0000 0000 0000 000000
2015-11-18 06:23:54,0.02,0.56,0.00,17.92,22.90,26.64,14.99,47.23,1037.52,2053.03,3337.52,3108.29,3418.97,599.54,618.47,29.77,0000 0000 0000 0000 000000
2015-11-18 06:28:55,0.02,0.56,0.00,17.91,22.89,26.62,15.10,47.31,1037.49,2053.02,3337.04,3108.04,3418.50,599.93,618.64,29.82,0000 0000 0000 0000 000000
2015-11-18 06:33:56,0.01,0.56,0.00,17.88,22.87,26.61,15.14,47.42,1037.28,2053.06,3337.00,3108.02,3418.20,599.97,618.84,29.87,0000 0000 0000 0000 000000
2015-11-18 06:38:58,0.01,0.56,0.00,17.85,22.85,26.59,15.08,47.35,1037.23,2053.12,3336.98,3108.00,3418.01,599.96,618.85,29.92,0000 0000 0000 0000 000000
2015-11-18 06:43:59,0.01,0.56,0.00,17.84,22.84,26.55,15.07,47.29,1037.28,2053.20,3336.87,3108.00,3418.00,599.53,618.51,29.97,0000 0000 0000 0000 000000
2015-11-18 06:49:00,0.03,0.56,0.00,17.83,22.82,26.53,15.15,47.43,1037.20,2053.44,3336.12,3107.97,3417.99,600.28,619.19,30.02,0000 0000 0000 0000 000000
2015-11-18 06:54:01,0.04,0.56,0.00,17.80,22.80,26.53,15.10,47.33,1037.23,2053.88,3336.01,3107.91,3417.98,600.18,619.14,30.07,0000 0000 0000 0000 000000
2015-11-18 06:59:03,0.01,0.57,0.00,17.77,22.79,26.50,15.11,47.38,1037.34,2053.97,3336.00,3107.70,3417.97,599.88,618.99,30.12,0000 0000 0000 0000 000000
2015-11-18 07:04:04,0.01,0.57,0.00,17.79,22.77,26.51,15.13,47.42,1037.41,2053.96,3335.90,3107.13,3417.63,599.92,619.05,30.17,0000 0000 0000 0000 000000
2015-11-18 07:09:06,0.02,0.57,0.00,17.76,22.75,26.48,15.22,47.60,1037.22,2053.98,3335.14,3107.01,3417.06,599.98,619.01,30.22,0000 0000 0000 0000 000000
2015-11-18 07:14:07,0.00,0.57,0.00,17.72,22.74,26.50,15.17,47.42,1037.22,2053.99,3335.00,3107.00,3417.00,600.14,619.27,30.27,0000 0000 0000 0000 000000
2015-11-18 07:19:08,0.00,0.57,0.00,17.72,22.72,26.43,15.16,47.23,1037.18,2053.99,3334.99,3106.98,3417.00,600.17,619.28,30.32,0000 0000 0000 0000 000000
2015-11-18 07:24:09,0.00,0.57,0.00,17.69,22.71,26.39,15.13,47.48,1037.13,2053.99,3334.92,3106.97,3416.98,600.00,619.16,30.37,0000 0000 0000 0000 000000
2015-11-18 07:29:11,0.02,0.57,0.00,17.66,22.69,26.43,15.14,47.40,1037.14,2054.00,3334.28,3106.87,3416.91,600.00,619.15,30.42,0000 0000 0000 0000 000000
2015-11-18 07:34:12,0.03,0.57,0.00,17.64,22.67,26.37,15.20,47.39,1037.17,2054.00,3334.01,3106.32,3416.35,600.36,619.69,30.47,0000 0000 0000 0000 000000
2015-11-18 07:39:13,0.00,0.57,0.00,17.64,22.66,26.38,15.21,47.48,1037.21,2054.01,3334.00,3106.03,3416.02,599.95,619.20,30.52,0000 0000 0000 0000 000000
2015-11-18 07:44:14,0.00,0.57,0.00,17.61,22.64,26.37,15.14,47.35,1037.27,2054.02,3333.93,3106.01,3416.00,599.90,619.27,30.57,0000 0000 0000 0000 000000
2015-11-18 07:49:16,0.01,0.57,0.00,17.59,22.62,26.35,15.20,47.40,1037.38,2054.03,3333.20,3106.00,3415.99,599.74,619.25,30.62,0000 0000 0000 0000 000000
2015-11-18 07:54:17,0.00,0.57,0.00,17.58,22.61,26.31,15.15,47.42,1037.31,2054.05,3333.02,3105.98,3415.93,599.84,619.20,30.67,0000 0000 0000 0000 000000
2015-11-18 07:59:18,0.02,0.57,0.00,17.57,22.59,26.29,15.23,47.45,1037.39,2054.12,3333.00,3105.94,3415.61,600.05,619.63,30.72,0000 0000 0000 0000 000000
2015-11-18 08:04:19,0.02,0.57,0.00,17.54,22.57,26.32,15.11,47.54,1037.22,2054.25,3332.97,3105.63,3415.20,599.81,619.28,30.77,0000 0000 0000 0000 000000
2015-11-18 08:09:20,0.04,0.58,0.00,17.52,22.55,26.26,15.21,47.46,1037.24,2054.43,3332.49,3105.10,3415.02,600.00,619.60,30.82,0000 0000 0000 0000 000000
2015-11-18 08:14:21,0.02,0.58,0.00,17.51,22.53,26.25,15.19,47.56,1037.43,2054.57,3332.02,3105.01,3414.99,600.09,619.83,30.87,0000 0000 0000 0000 000000
2015-11-18 08:19:22,0.02,0.58,0.00,17.49,22.52,26.22,15.17,47.45,1037.59,2054.77,3332.00,3105.00,3414.92,600.01,619.91,30.92,0000 0000 0000 0000 000000
2015-11-18 08:24:24,0.02,0.58,0.00,17.46,22.49,26.21,15.19,47.33,1037.61,2054.91,3331.97,3104.99,3414.70,599.77,619.75,30.97,0000 0000 0000 0000 000000
2015-11-18 08:29:25,0.02,0.58,0.00,17.44,22.48,26.20,15.17,47.24,1037.59,2054.97,3331.38,3104.98,3414.44,600.23,620.06,31.02,0000 0000 0000 0000 000000
2015-11-18 08:34:26,0.01,0.58,0.00,17.44,22.46,26.17,15.17,47.34,1037.60,2054.98,3331.03,3104.74,3414.07,599.91,619.90,31.07,0000 0000 0000 0000 000000
2015-11-18 08:39:27,0.01,0.58,0.00,17.42,22.44,26.19,15.15,47.28,1037.61,2054.98,3331.00,3104.16,3414.00,599.93,619.99,31.12,0000 0000 0000 0000 000000
2015-11-18 08:44:28,0.00,0.58,0.00,17.39,22.42,26.12,15.15,47.23,1037.61,2054.98,3330.99,3104.07,3413.99,599.90,620.14,31.17,0000 0000 0000 0000 000000
2015-11-18 08:49:29,0.00,0.58,0.00,17.38,22.39,26.15,15.16,47.30,1037.61,2054.99,3330.96,3104.02,3413.95,599.84,619.91,31.22,0000 0000 0000 0000 000000
2015-11-18 08:54:31,0.02,0.58,0.00,17.38,22.38,26.10,15.18,47.38,1037.61,2054.99,3330.41,3104.00,3413.60,600.02,620.20,31.27,0000 0000 0000 0000 000000
2015-11-18 08:59:32,0.00,0.58,0.00,17.37,22.36,26.11,15.20,47.21,1037.61,2054.99,3330.03,3104.00,3413.22,600.06,620.30,31.32,0000 0000 0000 0000 000000
2015-11-18 09:04:33,0.00,0.58,0.00,17.34,22.34,26.09,15.13,47.22,1037.61,2055.01,3330.00,3103.99,3413.08,599.68,619.93,31.37,0000 0000 0000 0000 000000
2015-11-18 09:09:35,0.00,0.58,0.00,17.32,22.32,26.09,15.20,47.09,1037.61,2055.01,3330.00,3103.99,3413.02,599.94,620.23,31.42,0000 0000 0000 0000 000000
2015-11-18 09:14:36,0.00,0.58,0.00,17.32,22.30,26.03,15.12,47.11,1037.61,2055.03,3330.00,3103.96,3413.02,599.93,620.19,31.47,0000 0000 0000 0000 000000
2015-11-18 09:19:37,0.01,0.58,0.00,17.31,22.28,26.02,15.21,47.21,1037.61,2055.05,3329.98,3103.95,3413.00,600.16,620.44,31.52,0000 0000 0000 0000 000000
2015-11-18 09:24:39,0.01,0.59,0.00,17.29,22.27,25.99,15.15,47.30,1037.63,2055.11,3329.76,3103.71,3413.00,599.66,619.98,31.57,0000 0000 0000 0000 000000
2015-11-18 09:29:40,0.03,0.59,0.00,17.27,22.24,26.00,15.20,47.16,1037.62,2055.21,3329.18,3103.29,3412.99,600.22,620.58,31.62,0000 0000 0000 0000 000000
2015-11-18 09:34:41,0.03,0.59,0.00,17.24,22.22,26.00,15.10,47.22,1037.62,2055.44,3329.01,3103.09,3412.98,599.66,619.99,31.67,0000 0000 0000 0000 000000
2015-11-18 09:39:42,0.03,0.59,0.00,17.24,22.21,25.98,15.16,47.06,1037.63,2055.77,3329.00,3103.04,3412.89,599.80,620.16,31.72,0000 0000 0000 0000 000000
2015-11-18 09:44:44,0.02,0.59,0.00,17.24,22.19,25.96,15.17,47.08,1037.62,2055.86,3328.99,3103.00,3412.40,599.79,620.17,31.77,0000 0000 0000 0000 000000
2015-11-18 09:49:45,0.00,0.59,0.00,17.21,22.17,25.92,15.23,47.13,1037.62,2055.96,3328.94,3103.00,3412.11,600.11,620.63,31.82,0000 0000 0000 0000 000000
2015-11-18 09:54:46,0.00,0.59,0.00,17.19,22.15,25.95,15.23,47.21,1037.61,2055.97,3328.73,3103.00,3412.02,600.00,620.50,31.87,0000 0000 0000 0000 000000
2015-11-18 09:59:48,0.01,0.59,0.00,17.19,22.13,25.91,15.16,47.02,1037.61,2055.98,3328.15,3102.98,3412.00,599.98,620.54,31.92,0000 0000 0000 0000 000000
2015-11-18 10:04:49,0.01,0.59,0.00,17.18,22.12,25.87,15.19,47.13,1037.61,2055.98,3327.99,3102.74,3412.00,599.75,620.28,31.97,0000 0000 0000 0000 000000
2015-11-18 10:09:50,0.03,0.59,0.00,17.16,22.09,25.87,15.17,47.07,1037.61,2055.99,3327.80,3102.21,3411.81,599.65,620.20,32.02,0000 0000 0000 0000 000000
2015-11-18 10:14:52,0.01,0.59,0.00,17.14,22.08,25.87,15.15,47.19,1037.60,2055.99,3327.21,3102.04,3411.14,599.74,620.43,32.07,0000 0000 0000 0000 000000
2015-11-18 10:19:53,0.00,0.60,0.00,17.13,22.07,25.85,15.15,47.24,1037.54,2055.99,3327.00,3101.98,3411.00,599.67,620.25,32.13,0000 0000 0000 0000 000000
2015-11-18 10:24:54,0.00,0.60,0.00,17.14,22.04,25.82,15.20,47.19,1037.46,2056.00,3326.87,3101.92,3410.97,600.23,620.73,32.18,0000 0000 0000 0000 000000
2015-11-18 10:29:56,0.05,0.60,0.00,17.12,22.03,25.85,15.11,47.22,1037.27,2056.01,3326.13,3101.26,3410.27,599.74,620.19,32.23,0000 0000 0000 0000 000000
2015-11-18 10:34:57,0.02,0.60,0.00,17.12,22.02,25.82,15.15,47.23,1037.22,2056.02,3325.27,3100.99,3409.99,600.04,620.55,32.28,0000 0000 0000 0000 000000
2015-11-18 10:39:58,0.04,0.60,0.00,17.12,21.99,25.84,15.24,47.28,1037.26,2056.04,3324.68,3100.36,3409.41,599.94,620.37,32.33,0000 0000 0000 0000 000000
2015-11-18 10:45:00,0.02,0.60,0.00,17.10,21.98,25.78,15.19,47.19,1037.16,2056.09,3323.94,3099.99,3408.98,600.05,620.50,32.38,0000 0000 0000 0000 000000
2015-11-18 10:50:01,0.06,0.60,0.00,17.09,21.97,25.79,15.23,47.24,1037.16,2056.20,3323.09,3099.34,3408.18,599.94,620.33,32.43,0000 0000 0000 0000 000000
2015-11-18 10:55:02,0.05,0.61,0.00,17.08,21.95,25.77,15.25,47.23,1037.30,2056.33,3322.16,3098.83,3407.55,600.26,620.86,32.48,0000 0000 0000 0000 000000
2015-11-18 11:00:03,0.06,0.61,0.00,17.07,21.94,25.76,15.18,47.17,1037.31,2056.56,3321.10,3098.06,3406.84,599.96,620.56,32.53,0000 0000 0000 0000 000000
2015-11-18 11:05:04,0.07,0.61,0.00,17.06,21.92,25.76,15.23,47.17,1037.25,2056.85,3320.09,3097.36,3406.04,600.06,620.66,32.58,0000 0000 0000 0000 000000
2015-11-18 11:10:05,0.04,0.62,0.00,17.04,21.92,25.74,15.30,47.16,1037.35,2056.92,3319.27,3096.75,3405.20,600.89,621.56,32.63,0000 0000 0000 0000 000000
2015-11-18 11:15:07,0.05,0.62,0.00,17.04,21.90,25.74,15.21,47.04,1037.27,2056.95,3318.13,3096.00,3404.32,599.66,620.24,32.68,0000 0000 0000 0000 000000
2015-11-18 11:20:08,0.05,0.62,0.00,17.02,21.89,25.73,15.15,47.15,1037.35,2056.96,3317.10,3095.18,3403.57,599.75,620.35,32.73,0000 0000 0000 0000 000000
2015-11-18 11:25:09,0.03,0.62,0.00,17.02,21.88,25.74,15.21,47.05,1037.23,2056.98,3316.15,3094.72,3402.91,600.52,621.21,32.78,0000 0000 0000 0000 000000
2015-11-18 11:30:11,0.04,0.63,0.00,17.00,21.87,25.73,15.27,47.23,1037.16,2056.98,3315.26,3094.02,3402.07,600.39,620.94,32.83,0000 0000 0000 0000 000000
2015-11-18 11:35:12,0.05,0.63,0.00,16.99,21.85,25.69,15.17,47.16,1037.14,2056.98,3314.13,3093.29,3401.40,599.61,620.21,32.88,0000 0000 0000 0000 000000
2015-11-18 11:40:13,0.02,0.63,0.00,16.97,21.84,25.68,15.18,47.13,1037.13,2056.99,3313.24,3092.93,3400.94,600.11,620.69,32.93,0000 0000 0000 0000 000000
2015-11-18 11:45:15,0.05,0.63,0.00,16.97,21.82,25.67,15.17,47.08,1037.13,2056.99,3312.40,3092.12,3400.12,599.81,620.59,32.98,0000 0000 0000 0000 000000
2015-11-18 11:50:16,0.04,0.63,0.00,16.95,21.82,25.65,15.14,47.09,1037.13,2056.99,3311.58,3091.67,3399.56,599.69,620.42,33.03,0000 0000 0000 0000 000000
2015-11-18 11:55:17,0.03,0.64,0.00,16.97,21.80,25.62,15.17,46.98,1037.13,2056.99,3310.56,3091.02,3398.96,599.74,620.38,33.09,0000 0000 0000 0000 000000
2015-11-18 12:00:19,0.03,0.64,0.00,16.96,21.79,25.60,15.24,47.11,1037.13,2056.99,3309.92,3090.55,3398.21,600.32,621.08,33.14,0000 0000 0000 0000 000000
2015-11-18 12:05:20,0.03,0.64,0.00,16.94,21.77,25.61,15.18,47.23,1037.13,2056.99,3309.07,3089.98,3397.43,599.83,620.58,33.19,0000 0000 0000 0000 000000
2015-11-18 12:10:22,0.04,0.64,0.00,16.93,21.77,25.60,15.15,47.10,1037.11,2056.99,3308.22,3089.20,3396.97,599.75,620.60,33.24,0000 0000 0000 0000 000000
2015-11-18 12:15:23,0.03,0.64,0.00,16.92,21.76,25.62,15.18,47.08,1037.01,2057.00,3307.22,3088.86,3396.14,600.09,620.84,33.29,0000 0000 0000 0000 000000
2015-11-18 12:20:24,0.04,0.65,0.00,16.92,21.74,25.59,15.15,47.09,1036.74,2057.01,3306.47,3088.05,3395.45,599.99,620.51,33.34,0000 0000 0000 0000 000000
2015-11-18 12:25:25,0.04,0.65,0.00,16.91,21.74,25.57,15.17,47.24,1036.71,2057.01,3305.53,3087.49,3394.80,600.06,620.63,33.39,0000 0000 0000 0000 000000
2015-11-18 12:30:27,0.04,0.65,0.00,16.94,21.72,25.55,15.19,47.10,1036.66,2057.02,3304.38,3086.81,3394.02,600.25,620.76,33.44,0000 0000 0000 0000 000000
2015-11-18 12:35:28,0.05,0.65,0.00,16.92,21.72,25.55,15.27,47.11,1036.65,2057.03,3303.36,3086.03,3393.19,600.05,620.62,33.49,0000 0000 0000 0000 000000
2015-11-18 12:40:29,0.05,0.66,0.00,16.90,21.71,25.54,15.22,47.26,1036.64,2057.07,3302.32,3085.33,3392.45,600.02,620.57,33.54,0000 0000 0000 0000 000000
2015-11-18 12:45:30,0.05,0.66,0.00,16.89,21.69,25.56,15.17,47.36,1036.64,2057.08,3301.15,3084.50,3391.51,599.86,620.43,33.59,0000 0000 0000 0000 000000
2015-11-18 12:50:31,0.05,0.66,0.00,16.87,21.69,25.54,15.19,47.29,1036.64,2057.16,3300.01,3083.80,3390.87,600.08,620.72,33.64,0000 0000 0000 0000 000000
2015-11-18 12:55:32,0.04,0.67,0.00,16.87,21.69,25.52,15.24,47.21,1036.64,2057.12,3298.85,3082.96,3389.97,600.09,620.63,33.69,0000 0000 0000 0000 000000